San Carlos, CA

10:21 AM PDT on September 26, 2017 (GMT -0700)
San Carlos

Weather History for KSQL - March, 2014

Change the Weather History Date:

Friday, March 28, 2014

  Actual Average Record
Temperature  
Mean Temperature 60 °F -  
Max Temperature 68 °F 67 °F 81 °F (1968)
Min Temperature 53 °F 44 °F 36 °F (1950)
Degree Days  
Heating Degree Days 4    
Growing Degree Days 10 (Base 50)    
Moisture  
Dew Point 48 °F    
Average Humidity 71    
Maximum Humidity 88    
Minimum Humidity 52    
Precipitation  
Precipitation 0.00 in - - ()
Sea Level Pressure  
Sea Level Pressure 30.15 in    
Wind  
Wind Speed 4 mph (South)    
Max Wind Speed 14 mph    
Max Gust Speed 17 mph    
Visibility 10 miles    
Events      
Averages and records for this station are not official NWS values.
T = Trace of Precipitation, MM = Missing Value Source: NWS Daily Summary

Daily Weather History Graph

Daily Weather History Graph

Search for Another Location

Airport or City:

Trip Planner

Search our weather history database for the weather conditions in past years. The results will help you decide how hot, cold, wet, or windy it might be!

Date:

Astronomy

Mar. 28, 2014 Rise Set
Actual Time 7:00 AM PDT 7:28 PM PDT
Civil Twilight 6:34 AM PDT 7:54 PM PDT
Nautical Twilight 6:03 AM PDT 8:25 PM PDT
Astronomical Twilight 5:31 AM PDT 8:56 PM PDT
Moon 5:32 AM PDT (3/28) 5:33 PM PDT (3/28)
Length of Visible Light 13h 20m
Length of Day
12h 27m
Waning Crescent, 5% of the Moon is Illuminated
Mar 28
Waning Crescent
Mar 30
New
Apr 7
First Quarter
Apr 15
Full
Apr 22
Last Quarter

Hourly Weather History & Observations

Time (PDT) Temp. Dew Point Humidity Pressure Visibility Wind Dir Wind Speed Gust Speed Precip Events Conditions
12:15 AM 57.2 °F 46.4 °F 67% 30.14 in 10.0 mi South 4.6 mph - N/A   Mostly Cloudy
12:35 AM 57.2 °F 46.4 °F 67% 30.14 in 10.0 mi South 3.5 mph - N/A   Partly Cloudy
12:55 AM 57.2 °F 46.4 °F 67% 30.14 in 10.0 mi SSW 4.6 mph - N/A   Mostly Cloudy
1:15 AM 57.2 °F 46.4 °F 67% 30.14 in 10.0 mi SW 4.6 mph - N/A   Overcast
1:35 AM 57.2 °F 46.4 °F 67% 30.16 in 10.0 mi SW 4.6 mph - N/A   Overcast
1:55 AM 57.2 °F 46.4 °F 67% 30.16 in 10.0 mi West 3.5 mph - N/A   Overcast
2:15 AM 57.2 °F 48.2 °F 72% 30.16 in 10.0 mi SW 3.5 mph - N/A   Overcast
2:35 AM 55.4 °F 48.2 °F 77% 30.15 in 10.0 mi SSW 4.6 mph - N/A   Mostly Cloudy
2:55 AM 55.4 °F 48.2 °F 77% 30.15 in 10.0 mi SSE 6.9 mph - N/A   Scattered Clouds
3:15 AM 55.4 °F 48.2 °F 77% 30.14 in 10.0 mi SSE 5.8 mph - N/A   Partly Cloudy
3:35 AM 53.6 °F 48.2 °F 82% 30.14 in 10.0 mi SSW 3.5 mph - N/A   Clear
3:55 AM 53.6 °F 48.2 °F 82% 30.14 in 10.0 mi Calm Calm - N/A   Clear
4:15 AM 53.6 °F 48.2 °F 82% 30.14 in 10.0 mi Calm Calm - N/A   Clear
4:35 AM 53.6 °F 48.2 °F 82% 30.14 in 10.0 mi Calm Calm - N/A   Clear
4:55 AM 53.6 °F 48.2 °F 82% 30.14 in 10.0 mi Calm Calm - N/A   Clear
5:15 AM 53.6 °F 48.2 °F 82% 30.15 in 10.0 mi Calm Calm - N/A   Clear
5:35 AM 53.6 °F 48.2 °F 82% 30.15 in 10.0 mi SW 3.5 mph - N/A   Clear
5:55 AM 53.6 °F 48.2 °F 82% 30.15 in 10.0 mi Calm Calm - N/A   Partly Cloudy
6:15 AM 53.6 °F 48.2 °F 82% 30.16 in 10.0 mi Calm Calm - N/A   Mostly Cloudy
6:35 AM 53.6 °F 48.2 °F 82% 30.16 in 10.0 mi Calm Calm - N/A   Overcast
6:51 AM 53.6 °F 50.0 °F 88% 30.17 in 10.0 mi East 3.5 mph - N/A   Mostly Cloudy
6:55 AM 53.6 °F 50.0 °F 88% 30.17 in 10.0 mi Calm Calm - N/A   Overcast
7:53 AM 53.6 °F 48.2 °F 82% 30.18 in 10.0 mi Calm Calm - N/A   Mostly Cloudy
8:48 AM 55.4 °F 48.2 °F 77% 30.20 in 10.0 mi SE 3.5 mph - N/A   Mostly Cloudy
9:49 AM 59.0 °F 50.0 °F 72% 30.20 in 10.0 mi East 4.6 mph - N/A   Mostly Cloudy
10:47 AM 60.8 °F 50.0 °F 68% 30.20 in 10.0 mi SE 5.8 mph - N/A   Mostly Cloudy
11:57 AM 62.6 °F 50.0 °F 63% 30.20 in 10.0 mi ENE 8.1 mph - N/A   Mostly Cloudy
12:52 PM 62.6 °F 50.0 °F 63% 30.19 in 10.0 mi ENE 8.1 mph - N/A   Mostly Cloudy
1:47 PM 64.4 °F 50.0 °F 59% 30.17 in 10.0 mi NE 6.9 mph - N/A   Mostly Cloudy
2:47 PM 68.0 °F 50.0 °F 52% 30.14 in 10.0 mi NW 9.2 mph 17.3 mph N/A   Mostly Cloudy
3:51 PM 66.2 °F 48.2 °F 52% 30.13 in 10.0 mi West 13.8 mph - N/A   Mostly Cloudy
4:47 PM 64.4 °F 50.0 °F 59% 30.12 in 10.0 mi SW 12.7 mph - N/A   Mostly Cloudy
5:49 PM 64.4 °F 48.2 °F 56% 30.12 in 10.0 mi SSW 10.4 mph - N/A   Mostly Cloudy
6:48 PM 62.6 °F 48.2 °F 59% 30.12 in 10.0 mi SW 4.6 mph - N/A   Mostly Cloudy
7:51 PM 60.8 °F 46.4 °F 59% 30.13 in 10.0 mi Calm Calm - N/A   Mostly Cloudy
8:50 PM 59.0 °F 46.4 °F 63% 30.14 in 10.0 mi WNW 4.6 mph - N/A   Clear
9:15 PM 59.0 °F 46.4 °F 63% 30.15 in 10.0 mi SW 8.1 mph 17.3 mph N/A   Clear
9:35 PM 59.0 °F 46.4 °F 63% 30.15 in 10.0 mi WSW 5.8 mph - N/A   Clear
9:55 PM 59.0 °F 46.4 °F 63% 30.16 in 10.0 mi South 5.8 mph - N/A   Clear
10:15 PM 59.0 °F 48.2 °F 67% 30.16 in 10.0 mi East 3.5 mph - N/A   Scattered Clouds
10:35 PM 59.0 °F 48.2 °F 67% 30.15 in 10.0 mi SE 4.6 mph - N/A   Mostly Cloudy
10:55 PM 57.2 °F 48.2 °F 72% 30.16 in 10.0 mi SE 4.6 mph - N/A   Overcast
11:15 PM 57.2 °F 48.2 °F 72% 30.16 in 10.0 mi Calm Calm - N/A   Mostly Cloudy
11:35 PM 57.2 °F 48.2 °F 72% 30.15 in 10.0 mi South 3.5 mph - N/A   Partly Cloudy
11:55 PM 57.2 °F 48.2 °F 72% 30.15 in 10.0 mi SSE 3.5 mph - N/A   Clear